Overview Statistics Trail Chart Weather Telemetry Raw packets
 

This is the latest recevied weather packets stored in our database for station/object K4KMJ. If no packets are shown the sender has not sent any weather packets the latest 10 day(s).

<< 33 34 35 36 37 38 39 >>
Time Temp. Humidity Pressure Rain* Wind** Luminosity Snow
1788442490 24.44° C 99% 1017.4 hPa 2.29 mm - 58 W/m² -
1788442184 24.44° C 99% 1017.4 hPa 0.51 mm - 58 W/m² -
1788441880 24.44° C 99% 1017.2 hPa 0 mm - 56 W/m² -
1788441580 24.44° C 99% 1017.4 hPa 0.51 mm - 51 W/m² -
1788441275 24.44° C 99% 1017.3 hPa 0 mm - 47 W/m² -
1788440974 24.44° C 99% 1017.3 hPa 0 mm - 51 W/m² -
1788440669 24.44° C 99% 1017.2 hPa 0 mm - 54 W/m² -
1788440367 24.44° C 99% 1016.9 hPa 0 mm - 62 W/m² -
1788440062 24.44° C 99% 1017.2 hPa 0 mm - 61 W/m² -
1788439761 24.44° C 99% 1017.1 hPa 0 mm - 58 W/m² -
1788439473 24.44° C 99% 1017 hPa 0.51 mm - 50 W/m² -
1788439155 24.44° C 99% 1016.8 hPa 0.51 mm - 47 W/m² -
1788438850 24.44° C 99% 1017.2 hPa 0 mm - 51 W/m² -
1788438549 24.44° C 99% 1017.2 hPa 0 mm - 50 W/m² -
1788438244 25° C 99% 1017.2 hPa 0 mm - 52 W/m² -
1788437945 25° C 99% 1017.1 hPa 0 mm - 58 W/m² -
1788437638 25° C 99% 1017 hPa 0 mm - 65 W/m² -
1788437334 25° C 99% 1016.9 hPa 1.27 mm - 76 W/m² -
1788437033 25° C 99% 1016.7 hPa 4.83 mm - 73 W/m² -
1788436731 25° C 99% 1017 hPa 10.16 mm - 60 W/m² -
1788436426 25° C 99% 1016.9 hPa 16.76 mm - 42 W/m² -
1788436126 24.44° C 99% 1016.7 hPa 16.26 mm - 24 W/m² -
1788435821 25° C 99% 1016.9 hPa 6.6 mm - 16 W/m² -
1788435517 24.44° C 99% 1016.8 hPa 1.27 mm - 12 W/m² -
1788435207 25° C 99% 1017 hPa 1.27 mm - 6 W/m² -

* Rain latest hour (hover to see other rain measurements)
** Current wind speed in m/s (hover to see current wind gust speed)